Weather History for Norfolk, NE

Change the Weather History Date:

Tuesday, September 27, 2011

  Actual Average Record
Temperature  
Mean Temperature 62 °F 59 °F  
Max Temperature 80 °F 72 °F 94 °F (1956)
Min Temperature 44 °F 46 °F 25 °F (1928)
Degree Days  
Heating Degree Days 3 7  
Month to date heating degree days 178 102  
Since 1 July heating degree days 178 118  
Cooling Degree Days 0 1  
Month to date cooling degree days 45 88  
Year to date cooling degree days 1026 904  
Growing Degree Days 13 (Base 50)    
Moisture  
Dew Point 44 °F    
Average Humidity 57    
Maximum Humidity 86    
Minimum Humidity 28    
Precipitation  
Precipitation 0.00 in 0.09 in 1.28 in (1988)
Month to date precipitation 0.63 2.43  
Year to date precipitation 19.08 22.96  
Snow  
Snow 0.00 in 0.00 in - ()
Month to date snowfall 0.0 0.0  
Since 1 July snowfall 0.0 0.0  
Snow Depth 0.00 in    
Sea Level Pressure  
Sea Level Pressure 29.96 in    
Wind  
Wind Speed 4 mph (WNW)    
Max Wind Speed 13 mph    
Max Gust Speed 18 mph    
Visibility 10 miles    
Events      
T = Trace of Precipitation, MM = Missing Value Source: NWS Daily Summary

Daily Weather History Graph

Daily Weather History Graph

Search for Another Location

Airport:

Trip Planner

Search our weather history database for the weather conditions in past years. The results will help you decide how hot, cold, wet, or windy it might be!

Date:

Astronomy

Sep. 27, 2011 Rise Set
Actual Time 7:22 AM CDT 7:18 PM CDT
Civil Twilight 6:54 AM CDT 7:46 PM CDT
Nautical Twilight 6:21 AM CDT 8:18 PM CDT
Astronomical Twilight 5:48 AM CDT 8:51 PM CDT
Moon 7:39 AM CDT (9/27) 7:08 PM CDT (9/27)
Length of Visible Light 12h 52m
Length of Day
11h 56m
New Moon, 0% of the Moon is Illuminated
Sep 27
New Moon
Oct 3
First Quarter
Oct 11
Full
Oct 19
Last Quarter
Oct 26
New

Hourly Weather History & Observations

Time (CDT) Temp. Windchill Dew Point Humidity Pressure Visibility Wind Dir Wind Speed Gust Speed Precip Events Conditions
12:56 AM 50.0 °F - 42.1 °F 74% 29.95 in 10.0 mi West 4.6 mph - N/A   Clear
1:56 AM 50.0 °F - 42.1 °F 74% 29.96 in 10.0 mi West 5.8 mph - N/A   Clear
2:56 AM 50.0 °F - 42.1 °F 74% 29.96 in 10.0 mi West 4.6 mph - N/A   Clear
3:56 AM 46.0 °F 43.1 °F 41.0 °F 83% 29.95 in 10.0 mi West 5.8 mph - N/A   Clear
4:56 AM 48.0 °F - 43.0 °F 83% 29.96 in 10.0 mi West 5.8 mph - N/A   Clear
6:56 AM 46.0 °F - 42.1 °F 86% 30.00 in 10.0 mi Calm Calm - N/A   Clear
7:56 AM 48.0 °F - 43.0 °F 83% 30.03 in 10.0 mi West 4.6 mph - N/A   Clear
8:56 AM 52.0 °F - 45.0 °F 77% 30.03 in 10.0 mi West 5.8 mph - N/A   Clear
10:56 AM 66.9 °F - 48.0 °F 51% 30.03 in 10.0 mi Calm Calm - N/A   Clear
11:56 AM 72.0 °F - 48.0 °F 43% 30.01 in 10.0 mi Variable 6.9 mph - N/A   Clear
12:56 PM 73.0 °F - 46.9 °F 39% 29.99 in 10.0 mi WNW 10.4 mph - N/A   Clear
2:56 PM 77.0 °F - 44.1 °F 31% 29.95 in 10.0 mi Variable 6.9 mph - N/A   Clear
3:56 PM 80.1 °F - 44.1 °F 28% 29.93 in 10.0 mi NW 4.6 mph - N/A   Clear
5:56 PM 79.0 °F - 42.1 °F 27% 29.91 in 10.0 mi NNW 4.6 mph - N/A   Clear
6:56 PM 75.0 °F - 42.1 °F 31% 29.91 in 10.0 mi Calm Calm - N/A   Clear
7:56 PM 63.0 °F - 44.1 °F 50% 29.92 in 10.0 mi Calm Calm - N/A   Clear
8:56 PM 55.0 °F - 46.0 °F 72% 29.92 in 10.0 mi WSW 3.5 mph - N/A   Clear
9:56 PM 52.0 °F - 44.1 °F 74% 29.93 in 10.0 mi Calm Calm - N/A   Clear
10:56 PM 52.0 °F - 44.1 °F 74% 29.92 in 10.0 mi Calm Calm - N/A   Clear
11:56 PM 51.1 °F - 44.1 °F 77% 29.91 in 10.0 mi Calm Calm - N/A   Clear